Location: Borea
(45.6167°N, 23.0167°E)
Time: 01:00:33
(UTC+00:00)

OPS 8068 - Pass Details

Date: 28 February 2024
Orbit: 631 x 963 km, 98.3° (Epoch: 13 April)

Event Time Altitude Azimuth Distance (km) Brightness Sun altitude
Rises 03:46:26 0° 188° (S) 2,919 ? -15.3°
Reaches altitude 10° 03:48:44 10° 197° (SSW) 2,031 ? -14.9°
Maximum altitude 03:52:45 35° 264° (W) 1,077 ? -14.2°
Drops below altitude 10° 03:57:02 10° 330° (NNW) 2,159 ? -13.4°
Sets 03:59:33 0° 339° (NNW) 3,132 ? -13.0°
